Time,TemperatureF,DewpointF,PressureIn,WindDirection,WindDirectionDegrees,WindSpeedMPH,WindSpeedGustMPH,Humidity,HourlyPrecipIn,Conditions,Clouds,dailyrainin,SoftwareType,DateUTC
2013-04-17 00:02:00,60.4,50.5,30.16,SSW,212,5.0,8.0,70,0.00,,,0.00,meteohub,2013-04-17 04:02:00,
2013-04-17 00:07:00,60.6,50.7,30.16,WNW,302,16.0,16.0,70,0.00,,,0.00,meteohub,2013-04-17 04:07:00,
2013-04-17 00:12:00,61.3,51.1,30.13,NNE,32,5.0,17.0,69,0.00,,,0.00,meteohub,2013-04-17 04:12:00,
2013-04-17 00:17:00,61.9,51.6,30.13,SSW,212,4.0,17.0,69,0.00,,,0.00,meteohub,2013-04-17 04:17:00,
2013-04-17 00:22:00,62.1,51.8,30.13,SE,145,5.0,17.0,69,0.00,,,0.00,meteohub,2013-04-17 04:22:00,
2013-04-17 00:27:00,62.1,51.8,30.16,ESE,122,4.0,9.0,69,0.00,,,0.00,meteohub,2013-04-17 04:27:00,
2013-04-17 00:32:00,62.1,52.2,30.16,ENE,78,2.0,9.0,70,0.00,,,0.00,meteohub,2013-04-17 04:32:00,
2013-04-17 00:37:00,62.4,52.5,30.16,North,10,7.0,7.0,70,0.00,,,0.00,meteohub,2013-04-17 04:37:00,
2013-04-17 00:42:00,62.6,52.3,30.16,NW,325,5.0,7.0,69,0.00,,,0.00,meteohub,2013-04-17 04:42:00,
2013-04-17 00:47:00,62.4,52.2,30.16,NNE,32,6.0,8.0,69,0.00,,,0.00,meteohub,2013-04-17 04:47:00,
2013-04-17 00:52:00,62.2,52.3,30.16,ENE,78,5.0,8.0,70,0.00,,,0.00,meteohub,2013-04-17 04:52:00,
2013-04-17 00:57:00,62.2,52.3,30.19,ENE,78,2.0,6.0,70,0.00,,,0.00,meteohub,2013-04-17 04:57:00,
2013-04-17 01:02:00,62.2,52.3,30.19,NE,55,2.0,6.0,70,0.00,,,0.00,meteohub,2013-04-17 05:02:00,
2013-04-17 01:07:00,61.9,52.3,30.19,East,100,5.0,5.0,71,0.00,,,0.00,meteohub,2013-04-17 05:07:00,
2013-04-17 01:12:00,61.7,52.5,30.19,SE,145,4.0,5.0,72,0.00,,,0.00,meteohub,2013-04-17 05:12:00,
2013-04-17 01:17:00,61.5,53.2,30.19,ESE,122,5.0,5.0,74,0.00,,,0.00,meteohub,2013-04-17 05:17:00,
2013-04-17 01:22:00,61.3,53.4,30.19,SSE,168,5.0,6.0,75,0.00,,,0.00,meteohub,2013-04-17 05:22:00,
2013-04-17 01:27:00,61.3,53.8,30.19,SE,145,4.0,6.0,76,0.00,,,0.00,meteohub,2013-04-17 05:27:00,
2013-04-17 01:32:00,61.2,53.6,30.19,East,100,4.0,6.0,76,0.00,,,0.00,meteohub,2013-04-17 05:32:00,
2013-04-17 01:37:00,61.0,53.8,30.19,East,100,2.0,6.0,77,0.00,,,0.00,meteohub,2013-04-17 05:37:00,
2013-04-17 01:42:00,61.0,53.8,30.16,WNW,302,0.0,5.0,77,0.00,,,0.00,meteohub,2013-04-17 05:42:00,
2013-04-17 01:47:00,60.8,54.0,30.16,WNW,302,0.0,5.0,78,0.00,,,0.00,meteohub,2013-04-17 05:47:00,
2013-04-17 01:52:00,60.8,54.0,30.16,SE,145,2.0,4.0,78,0.00,,,0.00,meteohub,2013-04-17 05:52:00,
2013-04-17 01:57:00,60.8,54.0,30.16,SE,145,3.0,4.0,78,0.00,,,0.00,meteohub,2013-04-17 05:57:00,
2013-04-17 02:02:00,60.6,54.1,30.16,SE,145,5.0,5.0,79,0.00,,,0.00,meteohub,2013-04-17 06:02:00,
2013-04-17 02:07:00,60.4,54.0,30.16,SSE,168,4.0,6.0,79,0.00,,,0.00,meteohub,2013-04-17 06:07:00,
2013-04-17 02:12:00,60.4,54.0,30.13,NNE,32,5.0,8.0,79,0.00,,,0.00,meteohub,2013-04-17 06:12:00,
2013-04-17 02:17:00,60.1,54.0,30.13,South,190,4.0,8.0,80,0.00,,,0.00,meteohub,2013-04-17 06:17:00,
2013-04-17 02:22:00,60.1,54.0,30.13,SE,145,3.0,8.0,80,0.00,,,0.00,meteohub,2013-04-17 06:22:00,
2013-04-17 02:27:00,60.1,54.0,30.13,SSE,168,4.0,5.0,80,0.00,,,0.00,meteohub,2013-04-17 06:27:00,
2013-04-17 02:32:00,60.1,54.3,30.13,SSE,168,4.0,5.0,81,0.00,,,0.00,meteohub,2013-04-17 06:32:00,
2013-04-17 02:37:00,60.1,54.3,30.13,SE,145,4.0,7.0,81,0.00,,,0.00,meteohub,2013-04-17 06:37:00,
2013-04-17 02:42:00,60.1,54.3,30.10,ESE,122,0.0,7.0,81,0.00,,,0.00,meteohub,2013-04-17 06:42:00,
2013-04-17 02:47:00,59.9,54.1,30.10,SSW,212,0.0,6.0,81,0.00,,,0.00,meteohub,2013-04-17 06:47:00,
2013-04-17 02:52:00,59.7,54.0,30.10,NNE,32,3.0,4.0,81,0.00,,,0.00,meteohub,2013-04-17 06:52:00,
2013-04-17 02:57:00,59.5,54.0,30.07,NE,55,0.0,3.0,82,0.00,,,0.00,meteohub,2013-04-17 06:57:00,
2013-04-17 03:02:00,59.5,54.0,30.07,ESE,122,0.0,3.0,82,0.00,,,0.00,meteohub,2013-04-17 07:02:00,
2013-04-17 03:07:00,59.5,54.0,30.07,East,100,0.0,3.0,82,0.00,,,0.00,meteohub,2013-04-17 07:07:00,
2013-04-17 03:17:00,59.4,53.8,30.10,SE,145,5.0,5.0,82,0.00,,,0.00,meteohub,2013-04-17 07:17:00,
2013-04-17 03:22:00,59.2,53.8,30.10,SSE,168,0.0,5.0,82,0.00,,,0.00,meteohub,2013-04-17 07:22:00,
2013-04-17 03:27:00,59.2,53.8,30.10,SSE,168,0.0,5.0,82,0.00,,,0.00,meteohub,2013-04-17 07:27:00,
2013-04-17 03:32:00,59.2,53.8,30.10,SSE,168,3.0,5.0,82,0.00,,,0.00,meteohub,2013-04-17 07:32:00,
2013-04-17 03:37:00,59.2,53.8,30.10,SE,145,3.0,4.0,82,0.00,,,0.00,meteohub,2013-04-17 07:37:00,
2013-04-17 03:42:00,59.0,53.6,30.10,ESE,122,0.0,4.0,82,0.00,,,0.00,meteohub,2013-04-17 07:42:00,
2013-04-17 03:47:00,59.0,53.6,30.10,ESE,122,0.0,4.0,82,0.00,,,0.00,meteohub,2013-04-17 07:47:00,
2013-04-17 03:52:00,58.8,53.6,30.10,SE,145,0.0,4.0,83,0.00,,,0.00,meteohub,2013-04-17 07:52:00,
2013-04-17 03:57:00,58.8,53.6,30.10,SE,145,0.0,0.0,83,0.00,,,0.00,meteohub,2013-04-17 07:57:00,
2013-04-17 04:02:00,58.6,53.4,30.10,NNE,32,2.0,0.0,83,0.00,,,0.00,meteohub,2013-04-17 08:02:00,
2013-04-17 04:07:00,58.6,53.4,30.10,NE,55,0.0,3.0,83,0.00,,,0.00,meteohub,2013-04-17 08:07:00,
2013-04-17 04:12:00,58.5,53.2,30.10,SW,235,2.0,3.0,83,0.00,,,0.00,meteohub,2013-04-17 08:12:00,
2013-04-17 04:17:00,58.5,53.2,30.10,WSW,258,0.0,4.0,83,0.00,,,0.00,meteohub,2013-04-17 08:17:00,
2013-04-17 04:22:00,58.3,53.1,30.10,WSW,258,0.0,4.0,83,0.00,,,0.00,meteohub,2013-04-17 08:22:00,
2013-04-17 04:27:00,58.3,53.1,30.10,NE,55,0.0,3.0,83,0.00,,,0.00,meteohub,2013-04-17 08:27:00,
2013-04-17 04:32:00,58.3,53.1,30.10,NE,55,0.0,0.0,83,0.00,,,0.00,meteohub,2013-04-17 08:32:00,
2013-04-17 04:37:00,58.3,53.1,30.10,SSE,168,3.0,0.0,83,0.00,,,0.00,meteohub,2013-04-17 08:37:00,
2013-04-17 04:42:00,58.1,53.2,30.13,NNE,32,4.0,5.0,84,0.00,,,0.00,meteohub,2013-04-17 08:42:00,
2013-04-17 04:47:00,58.1,53.2,30.13,North,10,0.0,5.0,84,0.00,,,0.00,meteohub,2013-04-17 08:47:00,
2013-04-17 04:52:00,58.1,53.2,30.13,WNW,302,0.0,5.0,84,0.00,,,0.00,meteohub,2013-04-17 08:52:00,
2013-04-17 04:57:00,58.1,53.2,30.13,NNW,348,3.0,4.0,84,0.00,,,0.00,meteohub,2013-04-17 08:57:00,
2013-04-17 05:02:00,57.9,53.4,30.13,NNW,348,0.0,3.0,85,0.00,,,0.00,meteohub,2013-04-17 09:02:00,
2013-04-17 05:07:00,57.9,53.4,30.13,NNW,348,3.0,3.0,85,0.00,,,0.00,meteohub,2013-04-17 09:07:00,
2013-04-17 05:12:00,57.9,53.4,30.13,NNW,348,0.0,4.0,85,0.00,,,0.00,meteohub,2013-04-17 09:12:00,
2013-04-17 05:17:00,57.9,53.4,30.13,SSE,168,0.0,4.0,85,0.00,,,0.00,meteohub,2013-04-17 09:17:00,
2013-04-17 05:22:00,57.9,53.4,30.13,SSE,168,0.0,4.0,85,0.00,,,0.00,meteohub,2013-04-17 09:22:00,
2013-04-17 05:27:00,57.9,53.4,30.16,SSE,168,0.0,0.0,85,0.00,,,0.00,meteohub,2013-04-17 09:27:00,
2013-04-17 05:32:00,57.9,53.8,30.16,SSE,168,0.0,0.0,86,0.00,,,0.00,meteohub,2013-04-17 09:32:00,
2013-04-17 05:37:00,57.9,53.8,30.16,SSE,168,0.0,0.0,86,0.00,,,0.00,meteohub,2013-04-17 09:37:00,
2013-04-17 05:42:00,57.9,53.8,30.13,NNW,348,0.0,0.0,86,0.00,,,0.00,meteohub,2013-04-17 09:42:00,
2013-04-17 05:47:00,57.7,53.6,30.13,NNW,348,0.0,0.0,86,0.00,,,0.00,meteohub,2013-04-17 09:47:00,
2013-04-17 05:52:00,57.7,53.6,30.13,SSW,212,0.0,0.0,86,0.00,,,0.00,meteohub,2013-04-17 09:52:00,
2013-04-17 05:57:00,57.6,53.4,30.13,NW,325,0.0,0.0,86,0.00,,,0.00,meteohub,2013-04-17 09:57:00,
2013-04-17 06:02:00,57.6,53.4,30.13,North,10,0.0,4.0,86,0.00,,,0.00,meteohub,2013-04-17 10:02:00,
2013-04-17 06:07:00,57.6,53.4,30.13,NE,55,0.0,4.0,86,0.00,,,0.00,meteohub,2013-04-17 10:07:00,
2013-04-17 06:12:00,57.6,53.8,30.13,NE,55,0.0,4.0,87,0.00,,,0.00,meteohub,2013-04-17 10:12:00,
2013-04-17 06:17:00,57.6,53.8,30.13,SSE,168,3.0,0.0,87,0.00,,,0.00,meteohub,2013-04-17 10:17:00,
2013-04-17 06:22:00,57.6,53.8,30.13,SE,145,3.0,5.0,87,0.00,,,0.00,meteohub,2013-04-17 10:22:00,
2013-04-17 06:27:00,57.4,53.6,30.16,SE,145,0.0,5.0,87,0.00,,,0.00,meteohub,2013-04-17 10:27:00,
2013-04-17 06:32:00,57.4,53.6,30.16,North,10,2.0,5.0,87,0.00,,,0.00,meteohub,2013-04-17 10:32:00,
2013-04-17 06:37:00,57.4,53.8,30.16,West,280,0.0,4.0,88,0.00,,,0.00,meteohub,2013-04-17 10:37:00,
2013-04-17 06:42:00,57.2,53.6,30.16,WNW,302,2.0,5.0,88,0.00,,,0.00,meteohub,2013-04-17 10:42:00,
2013-04-17 06:47:00,57.2,53.6,30.16,WNW,302,0.0,5.0,88,0.00,,,0.00,meteohub,2013-04-17 10:47:00,
2013-04-17 06:52:00,57.2,53.6,30.16,NNW,348,0.0,5.0,88,0.00,,,0.00,meteohub,2013-04-17 10:52:00,
2013-04-17 06:57:00,57.0,53.4,30.16,NNW,348,0.0,3.0,88,0.00,,,0.00,meteohub,2013-04-17 10:57:00,
2013-04-17 07:02:00,57.0,53.8,30.16,ENE,78,0.0,5.0,89,0.00,,,0.00,meteohub,2013-04-17 11:02:00,
2013-04-17 07:07:00,56.8,53.6,30.16,NNE,32,0.0,5.0,89,0.00,,,0.00,meteohub,2013-04-17 11:07:00,
2013-04-17 07:12:00,56.8,53.6,30.16,ENE,78,0.0,5.0,89,0.00,,,0.00,meteohub,2013-04-17 11:12:00,
2013-04-17 07:17:00,56.8,53.6,30.16,ENE,78,0.0,4.0,89,0.00,,,0.00,meteohub,2013-04-17 11:17:00,
2013-04-17 07:22:00,56.8,54.0,30.16,ESE,122,0.0,3.0,90,0.00,,,0.00,meteohub,2013-04-17 11:22:00,
2013-04-17 07:27:00,56.8,53.6,30.16,NNW,348,5.0,5.0,89,0.00,,,0.00,meteohub,2013-04-17 11:27:00,
2013-04-17 07:32:00,56.8,54.0,30.16,NNW,348,0.0,5.0,90,0.00,,,0.00,meteohub,2013-04-17 11:32:00,
2013-04-17 07:37:00,56.8,54.0,30.16,WNW,302,0.0,5.0,90,0.00,,,0.00,meteohub,2013-04-17 11:37:00,
2013-04-17 07:42:00,56.8,54.0,30.16,SSE,168,0.0,5.0,90,0.00,,,0.00,meteohub,2013-04-17 11:42:00,
2013-04-17 07:47:00,56.8,54.0,30.16,SE,145,2.0,0.0,90,0.00,,,0.00,meteohub,2013-04-17 11:47:00,
2013-04-17 07:52:00,57.0,54.1,30.16,NNW,348,0.0,4.0,90,0.00,,,0.00,meteohub,2013-04-17 11:52:00,
2013-04-17 07:57:00,57.0,54.1,30.16,NW,325,0.0,4.0,90,0.00,,,0.00,meteohub,2013-04-17 11:57:00,
2013-04-17 08:02:00,57.0,54.1,30.16,SSE,168,4.0,4.0,90,0.00,,,0.00,meteohub,2013-04-17 12:02:00,
2013-04-17 08:07:00,57.2,54.3,30.16,ENE,78,0.0,4.0,90,0.00,,,0.00,meteohub,2013-04-17 12:07:00,
2013-04-17 08:12:00,57.0,54.1,30.16,NNE,32,0.0,4.0,90,0.00,,,0.00,meteohub,2013-04-17 12:12:00,
2013-04-17 08:17:00,57.0,54.1,30.16,NW,325,0.0,4.0,90,0.00,,,0.00,meteohub,2013-04-17 12:17:00,
2013-04-17 08:22:00,57.0,54.1,30.16,NW,325,0.0,4.0,90,0.00,,,0.00,meteohub,2013-04-17 12:22:00,
2013-04-17 08:27:00,57.2,54.3,30.16,SSE,168,3.0,4.0,90,0.00,,,0.00,meteohub,2013-04-17 12:27:00,
2013-04-17 08:32:00,57.2,54.3,30.16,NNE,32,2.0,5.0,90,0.00,,,0.00,meteohub,2013-04-17 12:32:00,
2013-04-17 08:37:00,57.4,54.5,30.16,North,10,0.0,5.0,90,0.00,,,0.00,meteohub,2013-04-17 12:37:00,
2013-04-17 08:47:00,57.9,55.4,30.19,West,280,0.0,4.0,91,0.00,,,0.00,meteohub,2013-04-17 12:47:00,
2013-04-17 08:52:00,58.1,55.4,30.19,NNW,348,0.0,3.0,91,0.00,,,0.00,meteohub,2013-04-17 12:52:00,
2013-04-17 08:57:00,58.5,55.8,30.16,North,10,0.0,3.0,91,0.00,,,0.00,meteohub,2013-04-17 12:57:00,
2013-04-17 09:02:00,58.6,55.9,30.16,NNW,348,4.0,4.0,91,0.00,,,0.00,meteohub,2013-04-17 13:02:00,
2013-04-17 09:07:00,58.8,56.1,30.16,North,10,0.0,5.0,91,0.00,,,0.00,meteohub,2013-04-17 13:07:00,
2013-04-17 09:12:00,59.0,56.3,30.16,NNW,348,5.0,5.0,91,0.00,,,0.00,meteohub,2013-04-17 13:12:00,
2013-04-17 09:17:00,59.2,56.5,30.16,NNW,348,2.0,5.0,91,0.00,,,0.00,meteohub,2013-04-17 13:17:00,
2013-04-17 09:22:00,59.4,56.7,30.16,NNW,348,4.0,5.0,91,0.00,,,0.00,meteohub,2013-04-17 13:22:00,
2013-04-17 09:27:00,59.5,56.8,30.19,NE,55,0.0,5.0,91,0.00,,,0.00,meteohub,2013-04-17 13:27:00,
2013-04-17 09:32:00,59.9,57.2,30.19,ENE,78,0.0,5.0,91,0.00,,,0.00,meteohub,2013-04-17 13:32:00,
2013-04-17 09:37:00,60.1,57.4,30.19,North,10,0.0,4.0,91,0.00,,,0.00,meteohub,2013-04-17 13:37:00,
2013-04-17 09:42:00,60.3,57.6,30.16,North,10,2.0,5.0,91,0.00,,,0.00,meteohub,2013-04-17 13:42:00,
2013-04-17 09:47:00,60.3,57.6,30.16,NW,325,4.0,5.0,91,0.00,,,0.00,meteohub,2013-04-17 13:47:00,
2013-04-17 09:52:00,60.6,57.9,30.16,NE,55,0.0,6.0,91,0.00,,,0.00,meteohub,2013-04-17 13:52:00,
2013-04-17 09:57:00,61.0,58.3,30.16,ENE,78,0.0,6.0,91,0.00,,,0.00,meteohub,2013-04-17 13:57:00,
2013-04-17 10:02:00,61.2,58.5,30.16,North,10,0.0,6.0,91,0.00,,,0.00,meteohub,2013-04-17 14:02:00,
2013-04-17 10:07:00,61.5,58.8,30.16,NNW,348,0.0,3.0,91,0.00,,,0.00,meteohub,2013-04-17 14:07:00,
2013-04-17 10:12:00,61.9,59.2,30.16,ENE,78,0.0,4.0,91,0.00,,,0.00,meteohub,2013-04-17 14:12:00,
2013-04-17 10:17:00,62.4,59.4,30.16,SW,235,0.0,4.0,90,0.00,,,0.00,meteohub,2013-04-17 14:17:00,
2013-04-17 10:22:00,62.8,59.5,30.16,North,10,4.0,4.0,89,0.00,,,0.00,meteohub,2013-04-17 14:22:00,
2013-04-17 10:27:00,63.3,59.7,30.16,North,10,5.0,7.0,88,0.00,,,0.00,meteohub,2013-04-17 14:27:00,
2013-04-17 10:32:00,63.9,59.5,30.16,NNW,348,8.0,12.0,86,0.00,,,0.00,meteohub,2013-04-17 14:32:00,
2013-04-17 10:37:00,64.4,59.5,30.16,NW,325,6.0,13.0,84,0.00,,,0.00,meteohub,2013-04-17 14:37:00,
2013-04-17 10:47:00,65.3,58.6,30.16,WSW,258,6.0,13.0,79,0.00,,,0.00,meteohub,2013-04-17 14:47:00,
2013-04-17 10:52:00,65.7,57.9,30.16,NW,325,9.0,13.0,76,0.00,,,0.00,meteohub,2013-04-17 14:52:00,
2013-04-17 10:57:00,66.0,58.3,30.16,South,190,4.0,15.0,76,0.00,,,0.00,meteohub,2013-04-17 14:57:00,
2013-04-17 11:02:00,66.2,57.7,30.16,West,280,4.0,15.0,74,0.00,,,0.00,meteohub,2013-04-17 15:02:00,
2013-04-17 11:07:00,66.4,57.0,30.16,WSW,258,7.0,15.0,72,0.00,,,0.00,meteohub,2013-04-17 15:07:00,
2013-04-17 11:12:00,66.4,57.0,30.16,SSE,168,13.0,13.0,72,0.00,,,0.00,meteohub,2013-04-17 15:12:00,
2013-04-17 11:17:00,66.6,56.8,30.16,NW,325,9.0,13.0,71,0.00,,,0.00,meteohub,2013-04-17 15:17:00,
2013-04-17 11:22:00,66.6,56.8,30.16,WNW,302,5.0,13.0,71,0.00,,,0.00,meteohub,2013-04-17 15:22:00,
2013-04-17 11:27:00,66.7,57.0,30.16,North,10,7.0,15.0,71,0.00,,,0.00,meteohub,2013-04-17 15:27:00,
2013-04-17 11:32:00,66.7,56.7,30.16,WSW,258,12.0,15.0,70,0.00,,,0.00,meteohub,2013-04-17 15:32:00,
2013-04-17 11:37:00,66.7,56.7,30.16,West,280,3.0,17.0,70,0.00,,,0.00,meteohub,2013-04-17 15:37:00,
2013-04-17 11:42:00,67.3,57.2,30.16,WNW,302,7.0,17.0,70,0.00,,,0.00,meteohub,2013-04-17 15:42:00,
2013-04-17 11:47:00,67.6,57.6,30.16,West,280,0.0,17.0,70,0.00,,,0.00,meteohub,2013-04-17 15:47:00,
2013-04-17 11:52:00,68.0,57.4,30.16,ENE,78,3.0,15.0,69,0.00,,,0.00,meteohub,2013-04-17 15:52:00,
2013-04-17 11:57:00,68.0,57.0,30.16,NNE,32,4.0,15.0,68,0.00,,,0.00,meteohub,2013-04-17 15:57:00,
2013-04-17 12:02:00,68.2,56.5,30.16,West,280,3.0,15.0,66,0.00,,,0.00,meteohub,2013-04-17 16:02:00,
2013-04-17 12:07:00,68.5,56.7,30.16,WNW,302,0.0,12.0,66,0.00,,,0.00,meteohub,2013-04-17 16:07:00,
2013-04-17 12:12:00,68.5,56.3,30.16,WNW,302,5.0,12.0,65,0.00,,,0.00,meteohub,2013-04-17 16:12:00,
2013-04-17 12:17:00,68.5,55.9,30.16,West,280,6.0,12.0,64,0.00,,,0.00,meteohub,2013-04-17 16:17:00,
2013-04-17 12:22:00,68.7,56.1,30.16,NNW,348,8.0,8.0,64,0.00,,,0.00,meteohub,2013-04-17 16:22:00,
2013-04-17 12:27:00,69.1,56.5,30.19,WNW,302,8.0,10.0,64,0.00,,,0.00,meteohub,2013-04-17 16:27:00,
2013-04-17 12:32:00,69.6,56.5,30.19,WNW,302,6.0,11.0,63,0.00,,,0.00,meteohub,2013-04-17 16:32:00,
2013-04-17 12:37:00,69.6,56.1,30.19,NNW,348,8.0,11.0,62,0.00,,,0.00,meteohub,2013-04-17 16:37:00,
2013-04-17 12:42:00,69.8,55.8,30.19,NNW,348,6.0,11.0,61,0.00,,,0.00,meteohub,2013-04-17 16:42:00,
2013-04-17 12:47:00,70.0,55.9,30.16,NNW,348,6.0,10.0,61,0.00,,,0.00,meteohub,2013-04-17 16:47:00,
2013-04-17 12:52:00,70.3,55.8,30.16,NNW,348,12.0,12.0,60,0.00,,,0.00,meteohub,2013-04-17 16:52:00,
2013-04-17 12:57:00,70.3,56.3,30.16,NW,325,3.0,13.0,61,0.00,,,0.00,meteohub,2013-04-17 16:57:00,
2013-04-17 13:02:00,70.3,56.3,30.16,ESE,122,3.0,13.0,61,0.00,,,0.00,meteohub,2013-04-17 17:02:00,
2013-04-17 13:07:00,70.7,55.8,30.16,SSW,212,8.0,16.0,59,0.00,,,0.00,meteohub,2013-04-17 17:07:00,
2013-04-17 13:17:00,70.7,54.7,30.16,NNW,348,5.0,17.0,57,0.00,,,0.00,meteohub,2013-04-17 17:17:00,
2013-04-17 13:22:00,70.7,55.2,30.16,SSW,212,7.0,17.0,58,0.00,,,0.00,meteohub,2013-04-17 17:22:00,
2013-04-17 13:27:00,70.7,54.7,30.16,WSW,258,10.0,20.0,57,0.00,,,0.00,meteohub,2013-04-17 17:27:00,
2013-04-17 13:32:00,70.7,54.3,30.16,ENE,78,0.0,20.0,56,0.00,,,0.00,meteohub,2013-04-17 17:32:00,
2013-04-17 13:37:00,71.2,54.7,30.16,ENE,78,0.0,11.0,56,0.00,,,0.00,meteohub,2013-04-17 17:37:00,
2013-04-17 13:42:00,71.6,55.0,30.16,West,280,5.0,11.0,56,0.00,,,0.00,meteohub,2013-04-17 17:42:00,
2013-04-17 13:47:00,71.4,53.4,30.16,ESE,122,4.0,11.0,53,0.00,,,0.00,meteohub,2013-04-17 17:47:00,
2013-04-17 13:52:00,71.8,54.3,30.16,WSW,258,6.0,11.0,54,0.00,,,0.00,meteohub,2013-04-17 17:52:00,
2013-04-17 13:57:00,72.1,54.5,30.13,NW,325,4.0,11.0,54,0.00,,,0.00,meteohub,2013-04-17 17:57:00,
2013-04-17 14:02:00,72.7,54.5,30.13,South,190,8.0,11.0,53,0.00,,,0.00,meteohub,2013-04-17 18:02:00,
2013-04-17 14:07:00,72.9,54.1,30.13,WNW,302,8.0,11.0,52,0.00,,,0.00,meteohub,2013-04-17 18:07:00,
2013-04-17 14:12:00,72.7,53.1,30.13,SW,235,3.0,11.0,50,0.00,,,0.00,meteohub,2013-04-17 18:12:00,
2013-04-17 14:17:00,72.9,53.1,30.13,West,280,3.0,9.0,50,0.00,,,0.00,meteohub,2013-04-17 18:17:00,
2013-04-17 14:27:00,73.8,54.5,30.10,WSW,258,8.0,14.0,51,0.00,,,0.00,meteohub,2013-04-17 18:27:00,
2013-04-17 14:37:00,73.9,53.1,30.10,WNW,302,4.0,15.0,48,0.00,,,0.00,meteohub,2013-04-17 18:37:00,
2013-04-17 14:42:00,73.9,53.1,30.10,NW,325,3.0,15.0,48,0.00,,,0.00,meteohub,2013-04-17 18:42:00,
2013-04-17 14:47:00,73.8,51.6,30.10,West,280,5.0,8.0,46,0.00,,,0.00,meteohub,2013-04-17 18:47:00,
2013-04-17 14:52:00,74.3,52.2,30.10,WNW,302,7.0,7.0,46,0.00,,,0.00,meteohub,2013-04-17 18:52:00,
2013-04-17 14:57:00,74.5,51.8,30.10,NNW,348,6.0,11.0,45,0.00,,,0.00,meteohub,2013-04-17 18:57:00,
2013-04-17 15:02:00,74.7,51.3,30.10,WSW,258,4.0,11.0,44,0.00,,,0.00,meteohub,2013-04-17 19:02:00,
2013-04-17 15:12:00,75.0,52.2,30.10,NW,325,4.0,12.0,45,0.00,,,0.00,meteohub,2013-04-17 19:12:00,
2013-04-17 15:17:00,75.6,52.7,30.10,North,10,8.0,12.0,45,0.00,,,0.00,meteohub,2013-04-17 19:17:00,
2013-04-17 15:22:00,75.4,51.3,30.10,ESE,122,2.0,12.0,43,0.00,,,0.00,meteohub,2013-04-17 19:22:00,
2013-04-17 15:27:00,75.7,51.1,30.10,NNW,348,7.0,9.0,42,0.00,,,0.00,meteohub,2013-04-17 19:27:00,
2013-04-17 15:32:00,75.6,50.9,30.10,WNW,302,7.0,9.0,42,0.00,,,0.00,meteohub,2013-04-17 19:32:00,
2013-04-17 15:37:00,75.7,51.6,30.10,NNW,348,11.0,11.0,43,0.00,,,0.00,meteohub,2013-04-17 19:37:00,
2013-04-17 15:42:00,76.1,51.4,30.10,WNW,302,3.0,13.0,42,0.00,,,0.00,meteohub,2013-04-17 19:42:00,
2013-04-17 15:47:00,76.1,50.7,30.10,NNW,348,5.0,13.0,41,0.00,,,0.00,meteohub,2013-04-17 19:47:00,
2013-04-17 15:52:00,75.7,49.1,30.10,North,10,6.0,13.0,39,0.00,,,0.00,meteohub,2013-04-17 19:52:00,
2013-04-17 15:57:00,75.9,50.5,30.10,NNW,348,8.0,9.0,41,0.00,,,0.00,meteohub,2013-04-17 19:57:00,
2013-04-17 16:02:00,75.7,50.4,30.10,NW,325,7.0,11.0,41,0.00,,,0.00,meteohub,2013-04-17 20:02:00,
2013-04-17 16:07:00,75.4,50.7,30.10,NW,325,12.0,12.0,42,0.00,,,0.00,meteohub,2013-04-17 20:07:00,
2013-04-17 16:12:00,74.8,50.9,30.10,NNW,348,6.0,14.0,43,0.00,,,0.00,meteohub,2013-04-17 20:12:00,
2013-04-17 16:17:00,74.8,50.9,30.10,NNW,348,8.0,14.0,43,0.00,,,0.00,meteohub,2013-04-17 20:17:00,
2013-04-17 16:22:00,74.8,51.4,30.10,NNW,348,6.0,13.0,44,0.00,,,0.00,meteohub,2013-04-17 20:22:00,
2013-04-17 16:27:00,74.7,51.3,30.10,ENE,78,6.0,12.0,44,0.00,,,0.00,meteohub,2013-04-17 20:27:00,
2013-04-17 16:32:00,74.7,51.3,30.10,WNW,302,7.0,9.0,44,0.00,,,0.00,meteohub,2013-04-17 20:32:00,
2013-04-17 16:37:00,74.8,52.2,30.10,ESE,122,3.0,10.0,45,0.00,,,0.00,meteohub,2013-04-17 20:37:00,
2013-04-17 16:42:00,75.6,52.2,30.10,WNW,302,4.0,10.0,44,0.00,,,0.00,meteohub,2013-04-17 20:42:00,
2013-04-17 16:47:00,75.9,51.8,30.10,West,280,7.0,10.0,43,0.00,,,0.00,meteohub,2013-04-17 20:47:00,
2013-04-17 16:52:00,75.7,52.3,30.10,WSW,258,5.0,10.0,44,0.00,,,0.00,meteohub,2013-04-17 20:52:00,
2013-04-17 16:57:00,76.3,52.2,30.10,SSW,212,6.0,10.0,43,0.00,,,0.00,meteohub,2013-04-17 20:57:00,
2013-04-17 17:02:00,76.3,52.2,30.10,WNW,302,2.0,10.0,43,0.00,,,0.00,meteohub,2013-04-17 21:02:00,
2013-04-17 17:07:00,75.9,51.8,30.10,West,280,5.0,9.0,43,0.00,,,0.00,meteohub,2013-04-17 21:07:00,
2013-04-17 17:12:00,75.9,51.8,30.10,NW,325,8.0,13.0,43,0.00,,,0.00,meteohub,2013-04-17 21:12:00,
2013-04-17 17:17:00,75.9,51.8,30.10,NNW,348,7.0,13.0,43,0.00,,,0.00,meteohub,2013-04-17 21:17:00,
2013-04-17 17:22:00,75.7,51.1,30.10,West,280,5.0,11.0,42,0.00,,,0.00,meteohub,2013-04-17 21:22:00,
2013-04-17 17:27:00,75.6,50.9,30.10,WNW,302,2.0,11.0,42,0.00,,,0.00,meteohub,2013-04-17 21:27:00,
2013-04-17 17:32:00,75.4,50.7,30.10,NE,55,5.0,8.0,42,0.00,,,0.00,meteohub,2013-04-17 21:32:00,
2013-04-17 17:37:00,75.2,50.5,30.10,SW,235,4.0,9.0,42,0.00,,,0.00,meteohub,2013-04-17 21:37:00,
2013-04-17 17:42:00,75.4,51.3,30.07,South,190,2.0,9.0,43,0.00,,,0.00,meteohub,2013-04-17 21:42:00,
2013-04-17 17:47:00,75.0,51.1,30.07,SSW,212,7.0,8.0,43,0.00,,,0.00,meteohub,2013-04-17 21:47:00,
2013-04-17 17:52:00,74.8,50.9,30.07,SSW,212,4.0,7.0,43,0.00,,,0.00,meteohub,2013-04-17 21:52:00,
2013-04-17 17:57:00,74.8,50.2,30.07,West,280,2.0,8.0,42,0.00,,,0.00,meteohub,2013-04-17 21:57:00,
2013-04-17 18:02:00,74.7,50.0,30.07,SSW,212,5.0,8.0,42,0.00,,,0.00,meteohub,2013-04-17 22:02:00,
2013-04-17 18:07:00,74.8,50.9,30.07,SW,235,3.0,7.0,43,0.00,,,0.00,meteohub,2013-04-17 22:07:00,
2013-04-17 18:12:00,74.7,50.7,30.07,SW,235,2.0,6.0,43,0.00,,,0.00,meteohub,2013-04-17 22:12:00,
2013-04-17 18:17:00,74.8,50.9,30.07,WNW,302,3.0,6.0,43,0.00,,,0.00,meteohub,2013-04-17 22:17:00,
2013-04-17 18:22:00,75.0,51.1,30.07,NNW,348,4.0,6.0,43,0.00,,,0.00,meteohub,2013-04-17 22:22:00,
2013-04-17 18:32:00,75.0,50.4,30.07,WNW,302,4.0,9.0,42,0.00,,,0.00,meteohub,2013-04-17 22:32:00,
2013-04-17 18:37:00,74.8,50.2,30.07,NNW,348,4.0,9.0,42,0.00,,,0.00,meteohub,2013-04-17 22:37:00,
2013-04-17 18:42:00,74.8,50.9,30.10,NNW,348,7.0,9.0,43,0.00,,,0.00,meteohub,2013-04-17 22:42:00,
2013-04-17 18:47:00,74.8,50.9,30.10,NNE,32,6.0,9.0,43,0.00,,,0.00,meteohub,2013-04-17 22:47:00,
2013-04-17 18:52:00,74.5,50.5,30.10,NW,325,5.0,8.0,43,0.00,,,0.00,meteohub,2013-04-17 22:52:00,
2013-04-17 18:57:00,74.3,50.4,30.07,South,190,3.0,8.0,43,0.00,,,0.00,meteohub,2013-04-17 22:57:00,
2013-04-17 19:02:00,73.9,50.0,30.07,NNW,348,4.0,8.0,43,0.00,,,0.00,meteohub,2013-04-17 23:02:00,
2013-04-17 19:07:00,73.9,50.0,30.07,ESE,122,0.0,7.0,43,0.00,,,0.00,meteohub,2013-04-17 23:07:00,
2013-04-17 19:12:00,73.6,50.4,30.07,WSW,258,5.0,7.0,44,0.00,,,0.00,meteohub,2013-04-17 23:12:00,
2013-04-17 19:22:00,73.2,50.5,30.07,South,190,0.0,5.0,45,0.00,,,0.00,meteohub,2013-04-17 23:22:00,
2013-04-17 19:27:00,72.9,50.9,30.07,SSW,212,5.0,5.0,46,0.00,,,0.00,meteohub,2013-04-17 23:27:00,
2013-04-17 19:32:00,72.9,50.9,30.07,West,280,7.0,7.0,46,0.00,,,0.00,meteohub,2013-04-17 23:32:00,
2013-04-17 19:37:00,72.3,50.4,30.07,SSW,212,0.0,7.0,46,0.00,,,0.00,meteohub,2013-04-17 23:37:00,
2013-04-17 19:42:00,72.0,50.0,30.07,South,190,3.0,7.0,46,0.00,,,0.00,meteohub,2013-04-17 23:42:00,
2013-04-17 19:47:00,71.6,50.4,30.07,SE,145,2.0,7.0,47,0.00,,,0.00,meteohub,2013-04-17 23:47:00,
2013-04-17 19:52:00,71.1,50.4,30.07,SE,145,2.0,5.0,48,0.00,,,0.00,meteohub,2013-04-17 23:52:00,
2013-04-17 19:57:00,70.7,50.5,30.07,SE,145,4.0,5.0,49,0.00,,,0.00,meteohub,2013-04-17 23:57:00,
2013-04-17 20:02:00,70.5,50.5,30.07,SE,145,5.0,5.0,49,0.00,,,0.00,meteohub,2013-04-18 00:02:00,
2013-04-17 20:07:00,70.2,50.2,30.07,ESE,122,5.0,6.0,49,0.00,,,0.00,meteohub,2013-04-18 00:07:00,
2013-04-17 20:12:00,69.8,50.4,30.07,SE,145,5.0,6.0,50,0.00,,,0.00,meteohub,2013-04-18 00:12:00,
2013-04-17 20:17:00,69.6,50.7,30.07,SE,145,2.0,6.0,51,0.00,,,0.00,meteohub,2013-04-18 00:17:00,
2013-04-17 20:22:00,69.1,50.2,30.07,SSE,168,3.0,5.0,51,0.00,,,0.00,meteohub,2013-04-18 00:22:00,
2013-04-17 20:27:00,68.9,50.0,30.07,SE,145,0.0,5.0,51,0.00,,,0.00,meteohub,2013-04-18 00:27:00,
2013-04-17 20:32:00,68.5,50.2,30.07,SSE,168,0.0,4.0,52,0.00,,,0.00,meteohub,2013-04-18 00:32:00,
2013-04-17 20:37:00,68.2,49.8,30.07,SE,145,5.0,5.0,52,0.00,,,0.00,meteohub,2013-04-18 00:37:00,
2013-04-17 20:42:00,68.0,49.8,30.07,SSE,168,4.0,5.0,52,0.00,,,0.00,meteohub,2013-04-18 00:42:00,
2013-04-17 20:47:00,67.8,49.6,30.07,ESE,122,4.0,5.0,52,0.00,,,0.00,meteohub,2013-04-18 00:47:00,
2013-04-17 20:52:00,67.5,49.8,30.07,ESE,122,0.0,5.0,53,0.00,,,0.00,meteohub,2013-04-18 00:52:00,
2013-04-17 20:57:00,67.3,49.6,30.10,NW,325,0.0,5.0,53,0.00,,,0.00,meteohub,2013-04-18 00:57:00,
2013-04-17 21:02:00,66.9,49.8,30.10,WNW,302,0.0,4.0,54,0.00,,,0.00,meteohub,2013-04-18 01:02:00,
2013-04-17 21:07:00,66.6,49.5,30.10,SE,145,4.0,0.0,54,0.00,,,0.00,meteohub,2013-04-18 01:07:00,
2013-04-17 21:12:00,66.2,49.6,30.10,ESE,122,0.0,5.0,55,0.00,,,0.00,meteohub,2013-04-18 01:12:00,
2013-04-17 21:22:00,66.0,49.8,30.10,North,10,0.0,5.0,56,0.00,,,0.00,meteohub,2013-04-18 01:22:00,
2013-04-17 21:27:00,65.5,49.8,30.10,East,100,0.0,0.0,57,0.00,,,0.00,meteohub,2013-04-18 01:27:00,
2013-04-17 21:32:00,65.1,49.5,30.10,North,10,0.0,0.0,57,0.00,,,0.00,meteohub,2013-04-18 01:32:00,
2013-04-17 21:37:00,64.8,49.6,30.10,North,10,0.0,0.0,58,0.00,,,0.00,meteohub,2013-04-18 01:37:00,
2013-04-17 21:47:00,64.4,49.8,30.10,South,190,3.0,0.0,59,0.00,,,0.00,meteohub,2013-04-18 01:47:00,
2013-04-17 21:52:00,63.9,49.6,30.10,South,190,4.0,4.0,60,0.00,,,0.00,meteohub,2013-04-18 01:52:00,
2013-04-17 21:57:00,63.5,49.5,30.10,ESE,122,3.0,5.0,60,0.00,,,0.00,meteohub,2013-04-18 01:57:00,
2013-04-17 22:02:00,63.5,49.5,30.10,SE,145,0.0,5.0,60,0.00,,,0.00,meteohub,2013-04-18 02:02:00,
2013-04-17 22:12:00,63.0,49.8,30.10,SW,235,0.0,3.0,62,0.00,,,0.00,meteohub,2013-04-18 02:12:00,
2013-04-17 22:17:00,62.8,49.6,30.10,ESE,122,0.0,0.0,62,0.00,,,0.00,meteohub,2013-04-18 02:17:00,
2013-04-17 22:22:00,62.6,49.5,30.10,ESE,122,0.0,0.0,62,0.00,,,0.00,meteohub,2013-04-18 02:22:00,
2013-04-17 22:27:00,62.4,49.6,30.10,ESE,122,0.0,0.0,63,0.00,,,0.00,meteohub,2013-04-18 02:27:00,
2013-04-17 22:32:00,62.2,50.0,30.10,SSE,168,0.0,0.0,64,0.00,,,0.00,meteohub,2013-04-18 02:32:00,
2013-04-17 22:37:00,61.9,49.6,30.10,SSE,168,0.0,0.0,64,0.00,,,0.00,meteohub,2013-04-18 02:37:00,
2013-04-17 22:42:00,61.7,49.5,30.07,East,100,0.0,0.0,64,0.00,,,0.00,meteohub,2013-04-18 02:42:00,
2013-04-17 22:47:00,61.3,49.5,30.07,ENE,78,0.0,0.0,65,0.00,,,0.00,meteohub,2013-04-18 02:47:00,
2013-04-17 22:52:00,61.2,49.6,30.07,South,190,4.0,0.0,66,0.00,,,0.00,meteohub,2013-04-18 02:52:00,
2013-04-17 22:57:00,61.0,49.6,30.10,SSW,212,0.0,5.0,66,0.00,,,0.00,meteohub,2013-04-18 02:57:00,
2013-04-17 23:02:00,60.6,49.3,30.10,North,10,0.0,5.0,66,0.00,,,0.00,meteohub,2013-04-18 03:02:00,
2013-04-17 23:07:00,60.6,49.6,30.10,SW,235,0.0,5.0,67,0.00,,,0.00,meteohub,2013-04-18 03:07:00,
2013-04-17 23:12:00,60.4,49.5,30.10,SSW,212,0.0,0.0,67,0.00,,,0.00,meteohub,2013-04-18 03:12:00,
2013-04-17 23:17:00,60.3,49.3,30.10,SE,145,0.0,0.0,67,0.00,,,0.00,meteohub,2013-04-18 03:17:00,
2013-04-17 23:22:00,59.9,48.9,30.10,NNW,348,0.0,0.0,67,0.00,,,0.00,meteohub,2013-04-18 03:22:00,
2013-04-17 23:27:00,59.7,49.1,30.10,NE,55,0.0,4.0,68,0.00,,,0.00,meteohub,2013-04-18 03:27:00,
2013-04-17 23:32:00,59.4,48.7,30.10,North,10,0.0,4.0,68,0.00,,,0.00,meteohub,2013-04-18 03:32:00,
2013-04-17 23:37:00,59.2,49.1,30.10,NE,55,3.0,0.0,69,0.00,,,0.00,meteohub,2013-04-18 03:37:00,
2013-04-17 23:42:00,59.0,48.9,30.10,NE,55,0.0,3.0,69,0.00,,,0.00,meteohub,2013-04-18 03:42:00,
2013-04-17 23:47:00,59.0,49.3,30.10,NW,325,0.0,3.0,70,0.00,,,0.00,meteohub,2013-04-18 03:47:00,
2013-04-17 23:52:00,58.6,48.9,30.10,SE,145,3.0,6.0,70,0.00,,,0.00,meteohub,2013-04-18 03:52:00,
2013-04-17 23:57:00,58.5,48.7,30.10,WNW,302,0.0,6.0,70,0.00,,,0.00,meteohub,2013-04-18 03:57:00,